Location: Staunton
(38.1490°N, 79.0720°W)
Time: 00:59:17
(UTC-04:00)

ISS - Pass Details

Date: 25 May 2019
Orbit: 408 x 418 km, 51.6° (Epoch: 27 May)

Event Time Altitude Azimuth Distance (km) Brightness Sun altitude
Rises 23:38:11 0° 319° (NW) 2,355 1.2 -26.7°
Reaches altitude 10° 23:41:27 10° 354° (N) 1,493 -0.1 -27.0°
Maximum altitude 23:42:44 12° 16° (NNE) 1,393 -0.5 -27.1°
Enters shadow 23:43:33 11° 31° (NNE) 1,435 -0.7 -27.1°
